AAL1559 KDFW-KPHX

Flight info

Callsign AAL1559
Flight time 2h 14m
Altitude 32000
Route WSTEX2 CIKAN EWM DRRVR PINNG1
Aircraft B38M/M-SDE1FGHILORVWXY/HB1

Departure

Time 2026-05-04 22:34
Airport Dallas Fort Worth International Airport (KDFW)

Arrival

Time 2026-05-05 00:48
Airport Phoenix Sky Harbor International Airport (KPHX)
Time Latitude Longitude Altitude Speed Heading
2026-05-04 22:17 32.89474 -97.03739 589 ft 0 kts 355°
2026-05-04 22:19 32.89465 -97.03738 589 ft 4 kts 355°
2026-05-04 22:19 32.89442 -97.03736 589 ft 4 kts
2026-05-04 22:20 32.89425 -97.03746 589 ft 4 kts 71°
2026-05-04 22:20 32.89422 -97.03772 589 ft 2 kts 91°
2026-05-04 22:20 32.89421 -97.03746 589 ft 4 kts 91°
2026-05-04 22:20 32.89421 -97.03739 589 ft 0 kts 91°
2026-05-04 22:24 32.89421 -97.03738 589 ft 0 kts 91°
2026-05-04 22:24 32.89421 -97.03718 589 ft 6 kts 91°
2026-05-04 22:25 32.89419 -97.03637 589 ft 14 kts 91°
2026-05-04 22:25 32.89418 -97.03513 589 ft 16 kts 91°
2026-05-04 22:25 32.89417 -97.03375 589 ft 17 kts 86°
2026-05-04 22:25 32.89512 -97.03317 588 ft 18 kts
2026-05-04 22:26 32.89640 -97.03314 588 ft 19 kts
2026-05-04 22:26 32.89778 -97.03315 588 ft 20 kts 360°
2026-05-04 22:26 32.89925 -97.03315 588 ft 22 kts
2026-05-04 22:26 32.90079 -97.03314 588 ft 23 kts
2026-05-04 22:27 32.90243 -97.03313 587 ft 24 kts
2026-05-04 22:27 32.90413 -97.03312 587 ft 25 kts 360°
2026-05-04 22:27 32.90578 -97.03312 587 ft 21 kts
2026-05-04 22:27 32.90727 -97.03310 588 ft 22 kts
2026-05-04 22:28 32.90861 -97.03309 588 ft 15 kts 358°
2026-05-04 22:28 32.90904 -97.03399 588 ft 15 kts 270°
2026-05-04 22:28 32.90904 -97.03524 589 ft 16 kts 271°
2026-05-04 22:28 32.90905 -97.03657 592 ft 15 kts 270°
2026-05-04 22:29 32.90905 -97.03744 601 ft 7 kts 270°
2026-05-04 22:29 32.90906 -97.03798 618 ft 9 kts 270°
2026-05-04 22:29 32.90906 -97.03909 612 ft 19 kts 270°
2026-05-04 22:29 32.90905 -97.04103 616 ft 26 kts 270°
2026-05-04 22:30 32.90905 -97.04325 610 ft 28 kts 270°
2026-05-04 22:30 32.90906 -97.04504 600 ft 14 kts 270°
2026-05-04 22:30 32.90908 -97.04622 601 ft 14 kts 271°
2026-05-04 22:30 32.90913 -97.04735 604 ft 12 kts 296°
2026-05-04 22:31 32.90981 -97.04760 607 ft 10 kts 349°
2026-05-04 22:31 32.91059 -97.04790 619 ft 14 kts 355°
2026-05-04 22:31 32.91180 -97.04793 623 ft 21 kts
2026-05-04 22:31 32.91342 -97.04792 616 ft 25 kts
2026-05-04 22:32 32.91484 -97.04817 620 ft 16 kts 307°
2026-05-04 22:32 32.91493 -97.04940 624 ft 15 kts 270°
2026-05-04 22:32 32.91490 -97.05059 623 ft 11 kts 253°
2026-05-04 22:32 32.91423 -97.05076 626 ft 11 kts 179°
2026-05-04 22:33 32.91298 -97.05074 622 ft 35 kts 180°
2026-05-04 22:33 32.90831 -97.05076 608 ft 98 kts 180°
2026-05-04 22:33 32.89968 -97.05079 618 ft 147 kts 180°
2026-05-04 22:33 32.88870 -97.05075 876 ft 163 kts 178°
2026-05-04 22:34 32.87738 -97.05033 1448 ft 166 kts 178°
2026-05-04 22:34 32.86565 -97.05038 2002 ft 176 kts 180°
2026-05-04 22:34 32.85240 -97.05062 2315 ft 203 kts 180°
2026-05-04 22:34 32.83777 -97.05089 2737 ft 222 kts 182°
2026-05-04 22:35 32.82191 -97.05129 3345 ft 233 kts 182°
2026-05-04 22:35 32.80558 -97.05172 4105 ft 237 kts 183°
2026-05-04 22:35 32.78896 -97.05215 4892 ft 240 kts 183°
2026-05-04 22:35 32.77214 -97.05258 5678 ft 243 kts 183°
2026-05-04 22:36 32.75518 -97.05304 6456 ft 246 kts 183°
2026-05-04 22:36 32.73794 -97.05351 7187 ft 250 kts 185°
2026-05-04 22:36 32.72089 -97.05841 7721 ft 258 kts 210°
2026-05-04 22:36 32.70744 -97.07263 8316 ft 265 kts 235°
2026-05-04 22:37 32.70044 -97.09297 9013 ft 270 kts 255°
2026-05-04 22:37 32.69592 -97.11487 9669 ft 276 kts 254°
2026-05-04 22:37 32.69150 -97.13696 10366 ft 280 kts 260°
2026-05-04 22:37 32.69038 -97.16077 10663 ft 299 kts 268°
2026-05-04 22:38 32.68999 -97.18607 11066 ft 313 kts 269°
2026-05-04 22:38 32.68953 -97.21238 11524 ft 324 kts 269°
2026-05-04 22:38 32.68901 -97.23937 12131 ft 330 kts 269°
2026-05-04 22:38 32.68846 -97.26664 12847 ft 331 kts 269°
2026-05-04 22:39 32.68790 -97.29409 13558 ft 333 kts 270°
2026-05-04 22:39 32.68732 -97.32178 14269 ft 336 kts 270°
2026-05-04 22:39 32.68674 -97.34923 14943 ft 338 kts 270°
2026-05-04 22:39 32.68615 -97.37722 15636 ft 341 kts 270°
2026-05-04 22:40 32.68554 -97.40552 16276 ft 344 kts 270°
2026-05-04 22:40 32.68493 -97.43403 16923 ft 346 kts 270°
2026-05-04 22:40 32.68430 -97.46262 17538 ft 348 kts 270°
2026-05-04 22:40 32.68366 -97.49154 18129 ft 351 kts 270°
2026-05-04 22:41 32.68302 -97.52056 18725 ft 353 kts 270°
2026-05-04 22:41 32.68236 -97.54979 19274 ft 355 kts 270°
2026-05-04 22:41 32.68169 -97.57920 19838 ft 357 kts 271°
2026-05-04 22:41 32.68101 -97.60887 20407 ft 359 kts 271°
2026-05-04 22:42 32.68031 -97.63855 20938 ft 361 kts 271°
2026-05-04 22:42 32.67962 -97.66812 21432 ft 363 kts 271°
2026-05-04 22:42 32.67891 -97.69807 21947 ft 364 kts 271°
2026-05-04 22:42 32.67812 -97.72827 22423 ft 367 kts 269°
2026-05-04 22:43 32.67572 -97.75851 22916 ft 369 kts 268°
2026-05-04 22:43 32.67329 -97.78894 23365 ft 371 kts 268°
2026-05-04 22:43 32.67091 -97.81951 23816 ft 373 kts 268°
2026-05-04 22:43 32.66855 -97.85026 24246 ft 375 kts 268°
2026-05-04 22:44 32.66618 -97.88113 24666 ft 376 kts 268°
2026-05-04 22:44 32.66380 -97.91221 25102 ft 378 kts 269°
2026-05-04 22:44 32.66140 -97.94331 25502 ft 380 kts 269°
2026-05-04 22:44 32.65899 -97.97455 25917 ft 380 kts 269°
2026-05-04 22:45 32.65659 -98.00552 26281 ft 382 kts 269°
2026-05-04 22:45 32.65167 -98.06861 27030 ft 385 kts 269°
2026-05-04 22:45 32.64919 -98.10026 27385 ft 386 kts 269°
2026-05-04 22:46 32.64669 -98.13207 27737 ft 387 kts 269°
2026-05-04 22:46 32.64418 -98.16397 28061 ft 389 kts 269°
2026-05-04 22:46 32.64165 -98.19595 28388 ft 390 kts 269°
2026-05-04 22:46 32.63909 -98.22807 28700 ft 392 kts 269°
2026-05-04 22:47 32.63648 -98.26030 29016 ft 393 kts 269°
2026-05-04 22:47 32.63386 -98.29270 29344 ft 394 kts 269°
2026-05-04 22:47 32.63123 -98.32503 29679 ft 394 kts 269°
2026-05-04 22:47 32.62860 -98.35727 30102 ft 392 kts 269°
2026-05-04 22:48 32.62598 -98.38934 30572 ft 389 kts 269°
2026-05-04 22:48 32.62338 -98.42113 31008 ft 386 kts 270°
2026-05-04 22:48 32.62078 -98.45264 31456 ft 383 kts 270°
2026-05-04 22:48 32.61822 -98.48368 31762 ft 383 kts 270°
2026-05-04 22:49 32.61306 -98.54594 31815 ft 376 kts 270°
2026-05-04 22:49 32.60792 -98.60758 31811 ft 376 kts 270°
2026-05-04 22:50 32.60274 -98.66940 31815 ft 376 kts 270°
2026-05-04 22:50 32.59753 -98.73110 31814 ft 376 kts 270°
2026-05-04 22:51 32.59229 -98.79288 31808 ft 376 kts 270°
2026-05-04 22:51 32.58705 -98.85416 31814 ft 375 kts 270°
2026-05-04 22:52 32.58176 -98.91580 31810 ft 375 kts 269°
2026-05-04 22:52 32.57644 -98.97736 31813 ft 375 kts 269°
2026-05-04 22:53 32.57110 -99.03889 31814 ft 375 kts 269°
2026-05-04 22:53 32.56573 -99.10037 31815 ft 375 kts 269°
2026-05-04 22:54 32.56035 -99.16163 31810 ft 375 kts 269°
2026-05-04 22:54 32.55490 -99.22327 31814 ft 376 kts 269°
2026-05-04 22:55 32.54943 -99.28500 31818 ft 376 kts 269°
2026-05-04 22:55 32.54469 -99.34671 31817 ft 375 kts 271°
2026-05-04 22:56 32.54111 -99.40846 31811 ft 375 kts 271°
2026-05-04 22:56 32.53739 -99.47025 31810 ft 375 kts 271°
2026-05-04 22:57 32.53366 -99.53178 31811 ft 375 kts 270°
2026-05-04 22:57 32.52990 -99.59321 31816 ft 376 kts 270°
2026-05-04 22:58 32.52609 -99.65495 31812 ft 376 kts 270°
2026-05-04 22:58 32.52224 -99.71671 31812 ft 376 kts 270°
2026-05-04 22:59 32.51837 -99.77840 31806 ft 376 kts 270°
2026-05-04 22:59 32.51447 -99.84026 31796 ft 377 kts 270°
2026-05-04 23:00 32.51052 -99.90218 31783 ft 376 kts 270°
2026-05-04 23:00 32.50655 -99.96400 31785 ft 376 kts 270°
2026-05-04 23:01 32.50322 -100.01545 31793 ft 377 kts 270°
2026-05-04 23:01 32.49854 -100.08739 31794 ft 376 kts 270°
2026-05-04 23:02 32.49517 -100.13875 31801 ft 376 kts 270°
2026-05-04 23:02 32.49108 -100.20062 31796 ft 377 kts 270°
2026-05-04 23:03 32.48697 -100.26247 31803 ft 376 kts 270°
2026-05-04 23:03 32.48287 -100.32422 31810 ft 376 kts 270°
2026-05-04 23:04 32.47881 -100.38603 31817 ft 376 kts 270°
2026-05-04 23:04 32.47472 -100.44781 31821 ft 376 kts 270°
2026-05-04 23:05 32.47063 -100.50914 31823 ft 376 kts 270°
2026-05-04 23:05 32.46649 -100.57088 31824 ft 376 kts 270°
2026-05-04 23:06 32.46231 -100.63266 31822 ft 376 kts 270°
2026-05-04 23:06 32.45811 -100.69442 31821 ft 376 kts 270°
2026-05-04 23:07 32.45388 -100.75605 31818 ft 375 kts 270°
2026-05-04 23:07 32.44962 -100.81764 31814 ft 375 kts 270°
2026-05-04 23:08 32.44534 -100.87921 31815 ft 375 kts 270°
2026-05-04 23:08 32.44103 -100.94075 31814 ft 375 kts 270°
2026-05-04 23:09 32.43671 -101.00195 31817 ft 375 kts 270°
2026-05-04 23:09 32.43233 -101.06352 31820 ft 376 kts 270°
2026-05-04 23:10 32.42793 -101.12513 31823 ft 375 kts 270°
2026-05-04 23:10 32.42349 -101.18671 31831 ft 375 kts 270°
2026-05-04 23:11 32.41902 -101.24827 31830 ft 376 kts 269°
2026-05-04 23:11 32.41452 -101.30997 31831 ft 376 kts 269°
2026-05-04 23:12 32.40999 -101.37162 31835 ft 375 kts 269°
2026-05-04 23:12 32.40542 -101.43331 31837 ft 376 kts 269°
2026-05-04 23:13 32.40082 -101.49510 31844 ft 376 kts 269°
2026-05-04 23:13 32.39621 -101.55639 31845 ft 377 kts 269°
2026-05-04 23:14 32.39154 -101.61830 31836 ft 377 kts 269°
2026-05-04 23:14 32.38684 -101.68022 31841 ft 377 kts 269°
2026-05-04 23:15 32.38211 -101.74202 31841 ft 377 kts 269°
2026-05-04 23:15 32.37735 -101.80384 31846 ft 377 kts 269°
2026-05-04 23:16 32.37256 -101.86565 31849 ft 377 kts 269°
2026-05-04 23:16 32.36774 -101.92749 31848 ft 377 kts 269°
2026-05-04 23:17 32.36291 -101.98897 31859 ft 377 kts 269°
2026-05-04 23:17 32.35800 -102.05119 31859 ft 377 kts 269°
2026-05-04 23:18 32.35309 -102.11299 31863 ft 377 kts 269°
2026-05-04 23:18 32.34815 -102.17476 31867 ft 377 kts 269°
2026-05-04 23:19 32.34320 -102.23623 31868 ft 378 kts 269°
2026-05-04 23:19 32.33819 -102.29805 31869 ft 377 kts 269°
2026-05-04 23:20 32.33317 -102.35976 31867 ft 377 kts 269°
2026-05-04 23:20 32.32811 -102.42147 31868 ft 377 kts 269°
2026-05-04 23:21 32.32303 -102.48311 31872 ft 377 kts 268°
2026-05-04 23:21 32.31791 -102.54482 31873 ft 377 kts 268°
2026-05-04 23:22 32.31276 -102.60651 31869 ft 377 kts 268°
2026-05-04 23:22 32.30759 -102.66813 31866 ft 376 kts 268°
2026-05-04 23:23 32.30242 -102.72933 31870 ft 376 kts 268°
2026-05-04 23:23 32.29719 -102.79090 31867 ft 376 kts 268°
2026-05-04 23:24 32.29194 -102.85253 31865 ft 376 kts 268°
2026-05-04 23:24 32.28665 -102.91406 31868 ft 377 kts 268°
2026-05-04 23:25 32.28132 -102.97571 31869 ft 377 kts 268°
2026-05-04 23:25 32.27596 -103.03737 31867 ft 377 kts 268°
2026-05-04 23:26 32.27057 -103.09900 31870 ft 377 kts 268°
2026-05-04 23:26 32.26519 -103.16024 31869 ft 377 kts 268°
2026-05-04 23:27 32.25974 -103.22186 31869 ft 378 kts 268°
2026-05-04 23:27 32.25425 -103.28358 31870 ft 377 kts 267°
2026-05-04 23:28 32.24874 -103.34530 31869 ft 378 kts 267°
2026-05-04 23:28 32.24319 -103.40709 31865 ft 378 kts 267°
2026-05-04 23:29 32.23760 -103.46895 31871 ft 379 kts 267°
2026-05-04 23:29 32.23197 -103.53087 31871 ft 379 kts 267°
2026-05-04 23:30 32.22631 -103.59281 31877 ft 380 kts 267°
2026-05-04 23:30 32.22061 -103.65487 31879 ft 379 kts 267°
2026-05-04 23:31 32.21492 -103.71645 31878 ft 380 kts 267°
2026-05-04 23:31 32.20914 -103.77865 31880 ft 381 kts 267°
2026-05-04 23:32 32.20334 -103.84079 31879 ft 381 kts 266°
2026-05-04 23:32 32.19750 -103.90302 31881 ft 381 kts 266°
2026-05-04 23:33 32.19162 -103.96531 31879 ft 382 kts 266°
2026-05-04 23:33 32.18571 -104.02757 31879 ft 382 kts 266°
2026-05-04 23:34 32.17981 -104.08944 31884 ft 382 kts 266°
2026-05-04 23:34 32.17384 -104.15171 31877 ft 382 kts 266°
2026-05-04 23:35 32.16783 -104.21405 31878 ft 382 kts 266°
2026-05-04 23:35 32.16179 -104.27637 31880 ft 381 kts 266°
2026-05-04 23:36 32.15575 -104.33845 31879 ft 381 kts 266°
2026-05-04 23:36 32.14971 -104.40012 31881 ft 380 kts 266°
2026-05-04 23:37 32.14361 -104.46214 31876 ft 380 kts 266°
2026-05-04 23:37 32.13748 -104.52409 31874 ft 380 kts 266°
2026-05-04 23:38 32.13133 -104.58596 31926 ft 381 kts 266°
2026-05-04 23:38 32.12515 -104.64783 31887 ft 379 kts 266°
2026-05-04 23:39 32.11894 -104.70969 31888 ft 379 kts 266°
2026-05-04 23:39 32.11272 -104.77133 31884 ft 378 kts 265°
2026-05-04 23:40 32.10651 -104.83262 31897 ft 379 kts 265°
2026-05-04 23:40 32.10023 -104.89423 31898 ft 378 kts 265°
2026-05-04 23:41 32.09392 -104.95595 31901 ft 379 kts 265°
2026-05-04 23:41 32.08756 -105.01767 31896 ft 379 kts 265°
2026-05-04 23:42 32.08119 -105.07938 31904 ft 379 kts 265°
2026-05-04 23:42 32.07477 -105.14108 31907 ft 379 kts 265°
2026-05-04 23:43 32.06834 -105.20277 31908 ft 379 kts 265°
2026-05-04 23:43 32.06187 -105.26438 31914 ft 379 kts 265°
2026-05-04 23:44 32.05537 -105.32609 31916 ft 379 kts 265°
2026-05-04 23:44 32.04888 -105.38741 31915 ft 379 kts 264°
2026-05-04 23:45 32.04231 -105.44916 31923 ft 379 kts 264°
2026-05-04 23:45 32.03571 -105.51095 31918 ft 380 kts 264°
2026-05-04 23:46 32.02907 -105.57282 31918 ft 380 kts 264°
2026-05-04 23:46 32.02239 -105.63472 31924 ft 380 kts 264°
2026-05-04 23:47 32.01574 -105.69608 31918 ft 380 kts 264°
2026-05-04 23:47 32.00902 -105.75796 31950 ft 381 kts 264°
2026-05-04 23:48 32.00225 -105.81989 31952 ft 381 kts 264°
2026-05-04 23:48 31.99546 -105.88185 31961 ft 381 kts 264°
2026-05-04 23:49 31.98981 -105.93327 31957 ft 380 kts 264°
2026-05-04 23:49 31.98185 -106.00522 31958 ft 381 kts 264°
2026-05-04 23:50 31.97609 -106.05708 31964 ft 380 kts 264°
2026-05-04 23:50 31.96923 -106.11859 31963 ft 380 kts 264°
2026-05-04 23:51 31.96230 -106.18048 31959 ft 381 kts 264°
2026-05-04 23:51 31.95535 -106.24229 31953 ft 381 kts 264°
2026-05-04 23:52 31.95545 -106.30419 31964 ft 380 kts 275°
2026-05-04 23:52 31.96055 -106.36625 31958 ft 381 kts 274°
2026-05-04 23:53 31.96578 -106.42828 31954 ft 382 kts 275°
2026-05-04 23:53 31.97104 -106.49056 31959 ft 382 kts 275°
2026-05-04 23:54 31.97626 -106.55290 31955 ft 382 kts 274°
2026-05-04 23:54 31.98144 -106.61508 31966 ft 382 kts 274°
2026-05-04 23:55 31.98660 -106.67736 31971 ft 382 kts 274°
2026-05-04 23:56 31.99426 -106.77048 31971 ft 381 kts 274°
2026-05-04 23:56 31.99934 -106.83276 31968 ft 382 kts 274°
2026-05-04 23:57 32.00437 -106.89487 31975 ft 380 kts 274°
2026-05-04 23:57 32.00937 -106.95672 31993 ft 379 kts 274°
2026-05-04 23:58 32.01432 -107.01858 31977 ft 378 kts 273°
2026-05-04 23:58 32.01925 -107.08048 31980 ft 379 kts 273°
2026-05-04 23:59 32.02412 -107.14193 31979 ft 379 kts 273°
2026-05-04 23:59 32.02899 -107.20386 32001 ft 379 kts 273°
2026-05-05 00:00 32.03381 -107.26566 31988 ft 378 kts 273°
2026-05-05 00:00 32.03862 -107.32746 31992 ft 379 kts 273°
2026-05-05 00:01 32.04340 -107.38936 31985 ft 379 kts 273°
2026-05-05 00:01 32.04813 -107.45118 31990 ft 379 kts 272°
2026-05-05 00:02 32.05286 -107.51312 31989 ft 379 kts 272°
2026-05-05 00:02 32.05751 -107.57463 32002 ft 379 kts 272°
2026-05-05 00:03 32.06217 -107.63655 32004 ft 379 kts 272°
2026-05-05 00:03 32.06680 -107.69866 31979 ft 381 kts 272°
2026-05-05 00:04 32.07143 -107.76102 31981 ft 382 kts 272°
2026-05-05 00:04 32.07603 -107.82341 31990 ft 382 kts 272°
2026-05-05 00:05 32.08060 -107.88581 31992 ft 382 kts 272°
2026-05-05 00:05 32.08514 -107.94820 31986 ft 382 kts 272°
2026-05-05 00:06 32.08965 -108.01066 31985 ft 382 kts 272°
2026-05-05 00:06 32.09412 -108.07302 32000 ft 382 kts 272°
2026-05-05 00:07 32.09854 -108.13499 32000 ft 382 kts 272°
2026-05-05 00:07 32.10295 -108.19737 32002 ft 382 kts 271°
2026-05-05 00:08 32.10733 -108.25971 31992 ft 381 kts 271°
2026-05-05 00:08 32.11167 -108.32206 32012 ft 381 kts 271°
2026-05-05 00:09 32.11599 -108.38443 32014 ft 381 kts 271°
2026-05-05 00:09 32.12028 -108.44672 32009 ft 381 kts 271°
2026-05-05 00:10 32.12453 -108.50908 32008 ft 380 kts 271°
2026-05-05 00:10 32.12874 -108.57120 32007 ft 380 kts 271°
2026-05-05 00:11 32.13290 -108.63298 32008 ft 380 kts 271°
2026-05-05 00:11 32.13705 -108.69524 32007 ft 380 kts 271°
2026-05-05 00:12 32.14118 -108.75747 32001 ft 380 kts 271°
2026-05-05 00:12 32.14526 -108.81957 31999 ft 379 kts 271°
2026-05-05 00:13 32.14931 -108.88168 32000 ft 380 kts 270°
2026-05-05 00:13 32.15334 -108.94375 32006 ft 379 kts 270°
2026-05-05 00:14 32.15731 -109.00537 32016 ft 380 kts 270°
2026-05-05 00:14 32.16128 -109.06748 32007 ft 379 kts 270°
2026-05-05 00:15 32.16521 -109.12936 32004 ft 378 kts 270°
2026-05-05 00:15 32.16913 -109.19140 32016 ft 378 kts 270°
2026-05-05 00:16 32.17300 -109.25329 32016 ft 378 kts 270°
2026-05-05 00:16 32.18053 -109.31458 32040 ft 385 kts 278°
2026-05-05 00:17 32.19345 -109.37581 32028 ft 384 kts 278°
2026-05-05 00:17 32.20645 -109.43724 32031 ft 386 kts 277°
2026-05-05 00:18 32.21944 -109.49857 32032 ft 384 kts 277°
2026-05-05 00:18 32.23235 -109.55969 32032 ft 383 kts 278°
2026-05-05 00:19 32.24511 -109.62030 32038 ft 383 kts 277°
2026-05-05 00:19 32.25801 -109.68169 32027 ft 385 kts 277°
2026-05-05 00:20 32.27089 -109.74313 32038 ft 385 kts 277°
2026-05-05 00:20 32.28372 -109.80451 32043 ft 385 kts 277°
2026-05-05 00:21 32.29652 -109.86593 32044 ft 385 kts 277°
2026-05-05 00:21 32.30922 -109.92701 32045 ft 385 kts 277°
2026-05-05 00:22 32.32196 -109.98843 32040 ft 385 kts 277°
2026-05-05 00:22 32.33468 -110.04996 32043 ft 385 kts 277°
2026-05-05 00:23 32.34736 -110.11138 32065 ft 385 kts 277°
2026-05-05 00:23 32.36003 -110.17294 32033 ft 385 kts 277°
2026-05-05 00:24 32.37268 -110.23457 32040 ft 385 kts 277°
2026-05-05 00:24 32.38525 -110.29597 32046 ft 383 kts 277°
2026-05-05 00:25 32.39770 -110.35704 32045 ft 384 kts 277°
2026-05-05 00:25 32.41022 -110.41847 32045 ft 384 kts 276°
2026-05-05 00:26 32.42271 -110.47998 31954 ft 382 kts 276°
2026-05-05 00:26 32.42886 -110.51032 31405 ft 377 kts 276°
2026-05-05 00:26 32.43493 -110.54023 30955 ft 370 kts 276°
2026-05-05 00:26 32.44089 -110.56977 30500 ft 364 kts 276°
2026-05-05 00:27 32.44676 -110.59881 29967 ft 361 kts 276°
2026-05-05 00:27 32.45259 -110.62769 29405 ft 359 kts 276°
2026-05-05 00:27 32.45836 -110.65630 28892 ft 356 kts 276°
2026-05-05 00:27 32.46402 -110.68444 28294 ft 357 kts 277°
2026-05-05 00:28 32.47261 -110.71239 27668 ft 369 kts 291°
2026-05-05 00:28 32.48643 -110.73809 27295 ft 369 kts 293°
2026-05-05 00:28 32.50049 -110.76371 26919 ft 373 kts 294°
2026-05-05 00:28 32.51487 -110.78943 26536 ft 374 kts 295°
2026-05-05 00:29 32.52935 -110.81505 26079 ft 373 kts 296°
2026-05-05 00:29 32.54385 -110.84055 25647 ft 371 kts 295°
2026-05-05 00:29 32.55826 -110.86586 25217 ft 369 kts 296°
2026-05-05 00:29 32.57260 -110.89097 24771 ft 367 kts 296°
2026-05-05 00:30 32.58687 -110.91594 24338 ft 365 kts 296°
2026-05-05 00:30 32.60113 -110.94093 23940 ft 364 kts 296°
2026-05-05 00:30 32.61515 -110.96551 23529 ft 363 kts 296°
2026-05-05 00:30 32.62928 -110.99029 23126 ft 362 kts 296°
2026-05-05 00:31 32.64331 -111.01493 22706 ft 360 kts 296°
2026-05-05 00:31 32.65732 -111.03954 22294 ft 359 kts 296°
2026-05-05 00:31 32.67127 -111.06406 21876 ft 357 kts 296°
2026-05-05 00:31 32.68517 -111.08851 21465 ft 356 kts 296°
2026-05-05 00:32 32.69895 -111.11276 21061 ft 353 kts 296°
2026-05-05 00:32 32.71272 -111.13708 20562 ft 355 kts 296°
2026-05-05 00:32 32.72643 -111.16114 20186 ft 347 kts 296°
2026-05-05 00:32 32.73978 -111.18479 19785 ft 343 kts 296°
2026-05-05 00:33 32.75313 -111.20829 19333 ft 342 kts 296°
2026-05-05 00:33 32.76620 -111.23147 18961 ft 335 kts 296°
2026-05-05 00:33 32.77925 -111.25445 18637 ft 333 kts 296°
2026-05-05 00:33 32.79219 -111.27727 18228 ft 330 kts 296°
2026-05-05 00:34 32.80474 -111.29951 17886 ft 329 kts 296°
2026-05-05 00:34 32.81753 -111.32222 17520 ft 330 kts 296°
2026-05-05 00:34 32.83037 -111.34498 17155 ft 330 kts 296°
2026-05-05 00:34 32.84312 -111.36754 16784 ft 325 kts 296°
2026-05-05 00:35 32.85573 -111.38991 16398 ft 324 kts 296°
2026-05-05 00:35 32.86817 -111.41202 16017 ft 321 kts 297°
2026-05-05 00:35 32.88055 -111.43395 15647 ft 318 kts 297°
2026-05-05 00:35 32.89272 -111.45564 15295 ft 312 kts 297°
2026-05-05 00:36 32.90506 -111.47681 14861 ft 315 kts 303°
2026-05-05 00:36 32.92252 -111.49356 14379 ft 332 kts 326°
2026-05-05 00:36 32.94410 -111.50449 13797 ft 340 kts 332°
2026-05-05 00:36 32.95877 -111.51164 13385 ft 345 kts 332°
2026-05-05 00:37 32.98106 -111.52251 12911 ft 347 kts 332°
2026-05-05 00:37 33.00329 -111.53333 12557 ft 343 kts 332°
2026-05-05 00:37 33.02525 -111.54402 12296 ft 336 kts 332°
2026-05-05 00:37 33.04660 -111.55444 12167 ft 327 kts 332°
2026-05-05 00:38 33.06730 -111.56455 12022 ft 317 kts 332°
2026-05-05 00:38 33.08755 -111.57454 11684 ft 315 kts 332°
2026-05-05 00:38 33.10781 -111.58454 11281 ft 315 kts 332°
2026-05-05 00:38 33.12804 -111.59453 10883 ft 313 kts 332°
2026-05-05 00:39 33.14805 -111.60440 10485 ft 308 kts 333°
2026-05-05 00:39 33.16739 -111.61395 10108 ft 301 kts 333°
2026-05-05 00:39 33.18683 -111.62357 9717 ft 296 kts 333°
2026-05-05 00:39 33.20567 -111.63289 9342 ft 290 kts 333°
2026-05-05 00:40 33.22388 -111.64191 8983 ft 284 kts 333°
2026-05-05 00:40 33.24152 -111.65196 8601 ft 278 kts 329°
2026-05-05 00:40 33.25858 -111.66201 8295 ft 268 kts 330°
2026-05-05 00:40 33.27513 -111.67170 7974 ft 260 kts 330°
2026-05-05 00:41 33.29119 -111.68107 7623 ft 254 kts 330°
2026-05-05 00:41 33.30698 -111.69026 7295 ft 249 kts 330°
2026-05-05 00:41 33.32237 -111.69921 6984 ft 242 kts 330°
2026-05-05 00:41 33.33735 -111.70790 6694 ft 236 kts 330°
2026-05-05 00:42 33.35194 -111.71638 6399 ft 230 kts 330°
2026-05-05 00:42 33.36618 -111.72467 6091 ft 226 kts 330°
2026-05-05 00:42 33.38013 -111.73279 5828 ft 220 kts 330°
2026-05-05 00:42 33.39357 -111.74064 5553 ft 215 kts 329°
2026-05-05 00:43 33.40437 -111.75209 5204 ft 205 kts 297°
2026-05-05 00:43 33.41056 -111.76706 4941 ft 198 kts 291°
2026-05-05 00:43 33.41636 -111.78178 4704 ft 193 kts 291°
2026-05-05 00:43 33.42195 -111.79611 4453 ft 187 kts 291°
2026-05-05 00:44 33.42649 -111.81043 4206 ft 181 kts 281°
2026-05-05 00:44 33.42838 -111.82504 3966 ft 175 kts 271°
2026-05-05 00:44 33.42870 -111.83960 3748 ft 175 kts 268°
2026-05-05 00:44 33.42873 -111.85415 3519 ft 175 kts 268°
2026-05-05 00:45 33.42873 -111.86863 3302 ft 171 kts 268°
2026-05-05 00:45 33.42873 -111.88222 3111 ft 157 kts 268°
2026-05-05 00:45 33.42875 -111.89511 2896 ft 154 kts 268°
2026-05-05 00:45 33.42875 -111.90759 2669 ft 151 kts 269°
2026-05-05 00:46 33.42876 -111.92028 2469 ft 152 kts 269°
2026-05-05 00:46 33.42879 -111.93294 2271 ft 152 kts 270°
2026-05-05 00:46 33.42884 -111.94563 2065 ft 152 kts 271°
2026-05-05 00:46 33.42890 -111.95826 1848 ft 151 kts 270°
2026-05-05 00:47 33.42879 -111.97090 1649 ft 152 kts 270°
2026-05-05 00:47 33.42879 -111.98353 1444 ft 151 kts 271°
2026-05-05 00:47 33.42888 -111.99615 1256 ft 151 kts 270°
2026-05-05 00:47 33.42884 -112.00860 1133 ft 141 kts 270°
2026-05-05 00:48 33.42886 -112.01741 1134 ft 73 kts 270°
2026-05-05 00:48 33.42905 -112.02088 1120 ft 23 kts 287°
2026-05-05 00:48 33.42987 -112.02125 1127 ft 12 kts 64°
2026-05-05 00:48 33.42995 -112.02020 1128 ft 13 kts 90°
2026-05-05 00:49 33.42993 -112.01904 1126 ft 15 kts 90°
2026-05-05 00:49 33.42994 -112.01774 1128 ft 17 kts 89°
2026-05-05 00:49 33.42995 -112.01629 1125 ft 18 kts 90°
2026-05-05 00:49 33.42995 -112.01472 1130 ft 19 kts 90°
2026-05-05 00:50 33.42995 -112.01305 1129 ft 21 kts 90°
2026-05-05 00:50 33.42994 -112.01123 1129 ft 22 kts 91°
2026-05-05 00:50 33.42995 -112.00957 1131 ft 18 kts 90°
2026-05-05 00:50 33.42992 -112.00797 1130 ft 20 kts 90°
2026-05-05 00:51 33.43020 -112.00633 1131 ft 20 kts 44°
2026-05-05 00:51 33.43120 -112.00624 1135 ft 14 kts 360°
2026-05-05 00:51 33.43207 -112.00570 1135 ft 18 kts 67°
2026-05-05 00:51 33.43281 -112.00469 1128 ft 19 kts
2026-05-05 00:52 33.43424 -112.00468 1127 ft 22 kts 360°
2026-05-05 00:52 33.43578 -112.00469 1123 ft 23 kts
2026-05-05 00:52 33.43745 -112.00467 1127 ft 24 kts
2026-05-05 00:52 33.43886 -112.00453 1122 ft 17 kts 35°
2026-05-05 00:53 33.43902 -112.00328 1127 ft 13 kts 104°
2026-05-05 00:53 33.43831 -112.00299 1125 ft 6 kts 179°
2026-05-05 00:53 33.43804 -112.00299 1127 ft 4 kts 180°
2026-05-05 00:53 33.43777 -112.00292 1127 ft 4 kts 137°
2026-05-05 00:54 33.43771 -112.00260 1123 ft 5 kts 91°
2026-05-05 00:54 33.43771 -112.00250 1123 ft 0 kts 89°
2026-05-05 00:54 33.43771 -112.00243 1127 ft 0 kts 89°